Location: Unspecified
(48.3300°N, 0.0000°E)
Time: 10:24:08
(UTC+00:00)

ISS - Visible Passes

Search period start: 20 May 2019 00:00
Search period end: 30 May 2019 00:00
Orbit: 407 x 410 km, 51.6° (Epoch: 20 May)

Date Brightness Start Highest point End Pass type
(mag) Time Alt. Az. Time Alt. Az. Time Alt. Az.
20 May -3.4 00:50:36 10° WNW 00:53:54 64° NNE 00:57:12 10° E visible
20 May -3.2 02:27:20 10° W 02:30:21 33° SW 02:33:22 10° SSE visible
20 May -3.8 20:46:09 10° SW 20:49:24 55° SSE 20:52:39 10° ENE visible
20 May -2.9 22:22:48 10° W 22:26:02 50° N 22:29:17 10° ENE visible
20 May -3.0 23:59:41 10° WNW 00:02:56 52° N 00:04:30 26° ENE visible
21 May -1.6 01:36:19 10° WNW 01:37:06 16° WNW 01:37:06 16° WNW visible
21 May -3.3 21:31:47 10° W 21:35:03 62° NNW 21:38:21 10° ENE visible
21 May -2.7 23:08:43 10° WNW 23:11:56 46° N 23:14:14 17° ENE visible
22 May -2.2 00:45:22 10° WNW 00:46:55 25° WNW 00:46:55 25° WNW visible
22 May -3.7 20:40:48 10° WSW 20:44:06 82° NNW 20:47:25 10° ENE visible
22 May -2.7 22:17:42 10° WNW 22:20:55 45° N 22:24:07 10° ENE visible
22 May -3.4 23:54:26 10° WNW 23:57:15 59° NW 23:57:15 59° NW visible
23 May -2.8 21:26:40 10° W 21:29:53 47° N 21:33:06 10° ENE visible
23 May -3.2 23:03:30 10° WNW 23:06:46 57° NNE 23:07:45 38° ENE visible
24 May -1.2 00:40:10 10° WNW 00:40:27 12° WNW 00:40:27 12° WNW visible
24 May -3.0 20:35:36 10° W 20:38:51 55° NNW 20:42:07 10° ENE visible
24 May -2.9 22:12:31 10° WNW 22:15:44 48° N 22:18:18 15° E visible
24 May -2.4 23:49:08 10° WNW 23:51:00 30° W 23:51:00 30° W visible
25 May -2.7 21:21:30 10° WNW 21:24:41 45° N 21:27:54 10° ENE visible
25 May -3.9 22:58:09 10° WNW 23:01:29 87° NNE 23:01:37 82° E visible
26 May -2.7 20:30:25 10° W 20:33:37 45° N 20:36:50 10° ENE visible
26 May -3.5 22:07:11 10° WNW 22:10:29 65° NNE 22:12:14 25° E visible
26 May -1.6 23:43:55 10° W 23:44:57 17° W 23:44:57 17° W visible
27 May -3.0 21:16:11 10° WNW 21:19:26 52° N 21:22:41 10° E visible
27 May -3.3 22:52:50 10° WNW 22:55:36 46° WSW 22:55:36 46° WSW visible
28 May -2.8 20:25:09 10° WNW 20:28:22 46° N 20:31:34 10° E visible
28 May -3.9 22:01:47 10° WNW 22:05:06 79° SSW 22:06:15 37° SE visible
29 May -3.7 21:10:46 10° WNW 21:14:05 75° NNE 21:16:57 13° ESE visible
29 May -2.2 22:47:37 10° W 22:49:39 23° WSW 22:49:39 23° WSW visible
